Starlink 35322

operational
NORAD ID: 66332 Int'l Des: 2025-253 Owner: SPXS Country: US Constellation: starlink
NOTLE

Starlink 35322について

説明を読み込み中...

リアルタイム位置

3D地球を読み込み中...

次回通過

高度履歴

Altitude vs Time

uPlot chart will show altitude changes over time

軌道要素

1 66332C 25253P 25310.46020833 .00579790 00000+0 88508-3 0 3109
2 66332 43.0038 203.1760 0006912 237.7941 11.7593 16.02792508 17
Epoch: Nov 6, 2025 • Age: 25 hours

現在のステータス

高度 271.7 km
速度 7.75 km/s
衛星直下点 43.13°N, 134.54°W
打ち上げ日 Nov 6, 2025
運用期間 N/A
タイプ internet

技術仕様

分類 Payload
質量 575.00 kg
乾燥質量 530.00 kg
総質量 575.00 kg
長さ 0.30 m
直径 4.10 m
スパン 29.00 m
形状 Box + pan
製造者 SPXS
バスタイプ Starlink V2MO
フェーズステータス In Orbit
所有者/国 SPXS/US

大規模コンステレーション

Loading constellations...